Regional Weather Roundup
Issued by NWS Little Rock, AR

Home | Current Version | Previous Version | Graphics & Text | Print | Product List | Glossary On
Versions: 1 2 3 4 5 6 7 8 9 10 11 12 13 14 15 16 17 18 19 20 21 22 23 24 25 26 27 28 29 30 31 32 33 34 35 36 37 38 39 40 41 42 43 44 45 46 47 48 49 50
000
ASUS44 KLZK 280105
RWRLZK

WEATHER ROUNDUP FOR ARKANSAS
NATIONAL WEATHER SERVICE LITTLE ROCK AR
700 PM CST SAT DEC 27 2014

NOTE: "FAIR" INDICATES FEW OR NO CLOUDS BELOW 12,000 FEET WITH NO
SIGNIFICANT WEATHER AND/OR OBSTRUCTIONS TO VISIBILITY.

ARZ001-003-010-029-280200-
NORTHWEST ARKANSAS

CITY           SKY/WX    TMP DP  RH WIND       PRES   REMARKS
FAYETTEVILLE   CLOUDY    31  29  92 NW8       30.26R WCI  23
FORT SMITH     CLOUDY    36  31  82 NW9       30.26R
HARRISON       CLOUDY    32  31  96 NW7       30.22R WCI  26
BENTONVILLE    CLOUDY    30  27  86 N8        30.25R WCI  23
ROGERS         CLOUDY    30  29  96 N7        30.24R WCI  23
SILOAM SPGS    CLOUDY    30  21  69 N5        30.27S WCI  25
HIGHFILL       CLOUDY    30  27  88 N13       30.24S WCI  20
SPRINGDALE     CLOUDY    32  30  93 NW9       30.26R WCI  24
$$

ARZ004-005-016-280200-
NORTH CENTRAL ARKANSAS

CITY           SKY/WX    TMP DP  RH WIND       PRES   REMARKS
BATESVILLE     CLOUDY    41  39  93 W3        30.17F
FLIPPIN        CLOUDY    36  30  80 NW8       30.21S
MTN HOME       CLOUDY    35  35 100 NW6       30.20R WCI  30
$$

ARZ040-041-280200-
WEST CENTRAL ARKANSAS

CITY           SKY/WX    TMP DP  RH WIND       PRES   REMARKS
MENA           CLOUDY    39  36  87 N12       30.18F
MOUNT IDA      LGT RAIN  39  37  92 NW9       30.15R
$$

ARZ009-017-025-026-028-280200-
NORTHEAST ARKANSAS

CITY           SKY/WX    TMP DP  RH WIND       PRES   REMARKS
CORNING        RAIN      45  45 100 N8        30.18R
JONESBORO      LGT RAIN  45  44  97 NW17G23   30.17R FOG
NEWPORT        LGT RAIN  43  42  96 N14       30.19F
WALNUT RIDGE   CLOUDY    43  39  87 N12       30.16F
BLYTHEVILLE    CLOUDY    50  50 100 N15       30.11R
$$

ARZ022-023-033-042-044-280200-
CENTRAL ARKANSAS

CITY           SKY/WX    TMP DP  RH WIND       PRES   REMARKS
LITTLE ROCK    LGT RAIN  45  40  82 N9        30.15F
N LITTLE ROCK  CLOUDY    42  42 100 N9        30.15F
JACKSONVILLE   LGT RAIN  43  43  97 N6        30.14F
SEARCY         LGT RAIN  43  42  97 N12       30.17F
HOT SPRINGS    LGT RAIN  44  42  93 NW7       30.17R
RUSSELLVILLE   LGT RAIN  42  40  92 W9        30.19R
CLINTON        MOCLDY    39  37  93 NW6       30.21R
$$

ARZ036-280200-
EAST ARKANSAS

CITY           SKY/WX    TMP DP  RH WIND       PRES   REMARKS
WEST MEMPHIS   LGT RAIN  52  52 100 N6        30.10R FOG
$$

ARZ050-053-066-070-073-280200-
SOUTHWEST ARKANSAS

CITY           SKY/WX    TMP DP  RH WIND       PRES   REMARKS
ARKADELPHIA    LGT RAIN  47  47 100 NW8       30.18S
CAMDEN         CLOUDY    46  43  87 MISG      30.15R FOG
TEXARKANA      CLOUDY    45  44  97 N6        30.18R
EL DORADO      LGT RAIN  48  46  93 N7        30.14R FOG
DE QUEEN       CLOUDY    42  41  96 W3        30.17F
$$

ARZ056-057-069-280200-
SOUTHEAST ARKANSAS

CITY           SKY/WX    TMP DP  RH WIND       PRES   REMARKS
PINE BLUFF     CLOUDY    46  42  86 N16G25    30.12F
STUTTGART      CLOUDY    45  41  87 N20       30.13F
MONTICELLO     CLOUDY    49  46  90 VRB7G20   30.11R

$$




USA.gov is the U.S. government's official web portal to all federal, state and local government web resources and services.